Flag for Germany Weather past 2 weeks in Pirmasens, Rhineland-Palatinate, Germany

Now
50 °F

Scattered clouds.


Feels Like: 47 °F
Forecast: 35 / 54 °F
Wind: 7 mph from Northwest

Location: Zweibrucken - Rheinland-Pfalz

Current Time: Oct 23, 2014 at 4:49:38 PM

Latest Report: Oct 23, 2014 at 4:20 PM


Visibility: N/A

Pressure: 30.24 "Hg

Humidity: 82%

Dew point: 45 °F

Location of PirmasensLocation

Historic Weather in Pirmasens — Graph

°F

Pirmasens temperature yesterday

Maximum temperature yesterday: 46 °F (at 2:50 PM)
Minimum temperature yesterday: 41 °F (at 5:20 AM)
Average temperature yesterday: 44 °F

Past Weeks' High & Low Weather Summary

 TemperatureHumidityPressure
High72 °F (Oct 18, 3:50 PM)100% (Oct 8, 5:20 PM)30.30 "Hg (Oct 8, 5:20 PM)
Low41 °F (Oct 22, 5:20 AM)64% (Oct 18, 2:50 PM)29.62 "Hg (Oct 21, 5:50 PM)
Average57 °F89%29.95 "Hg
* Reported Oct 8 3:20 PM — Oct 23 3:50 PM, Pirmasens, Weather by CustomWeather, © 2014

Note: Actual official high and low records may vary slightly from our data, if they occured in-between our weather recording intervals... More about our weather records

Advertising

Pirmasens weather history for previous 24 hours

 ConditionsComfort  
Time TempWeatherWind HumidityBarometerVisibility
3:50 PM
Oct 23
52 °FPartly sunny.8 mph77%30.24 "HgN/A
3:20 PM52 °FSunny.9 mph72%30.27 "Hg10 mi
2:50 PM52 °FPartly sunny.7 mph77%30.27 "HgN/A
2:20 PM50 °FPartly sunny.6 mph82%30.27 "HgN/A
1:50 PM50 °FBroken clouds.7 mph82%30.27 "HgN/A
1:20 PM50 °FBroken clouds.5 mph82%30.27 "HgN/A
12:50 PM48 °FPartly sunny.8 mph87%30.27 "HgN/A
12:20 PM46 °FPartly sunny.8 mph93%30.27 "HgN/A
11:50 AM46 °FPartly sunny.7 mph87%30.30 "HgN/A
11:20 AM45 °FPartly sunny.7 mph93%30.27 "HgN/A
10:50 AM45 °FMostly cloudy.7 mph93%30.27 "HgN/A
10:20 AM45 °FPartly sunny.8 mph93%30.27 "HgN/A
9:50 AM45 °FPartly cloudy.7 mph93%30.27 "Hg6 mi
9:20 AM45 °FMostly cloudy.6 mph93%30.27 "Hg4 mi
8:50 AM45 °FPassing clouds.6 mph93%30.24 "Hg6 mi
8:20 AM43 °FLow clouds.3 mph100%30.24 "Hg6 mi
7:50 AM45 °FPassing clouds.6 mph93%30.24 "HgN/A
4:20 AM45 °FPassing clouds.10 mph87%30.21 "HgN/A
3:50 AM45 °FOvercast.10 mph87%30.21 "HgN/A
1:50 AM45 °FPassing clouds.9 mph93%30.21 "HgN/A
1:20 AM45 °FPassing clouds.9 mph93%30.21 "HgN/A
9:50 PM
Oct 22
46 °FPassing clouds.12 mph82%30.18 "HgN/A
9:20 PM46 °FPartly cloudy.16 mph82%30.15 "HgN/A
8:50 PM46 °FPartly cloudy.15 mph82%30.15 "HgN/A
8:20 PM46 °FCloudy.15 mph82%30.15 "HgN/A
7:50 PM46 °FLight rain. Broken clouds.12 mph82%30.15 "HgN/A
7:20 PM46 °FPartly sunny.16 mph82%30.12 "HgN/A
6:50 PM45 °FLight rain. Partly sunny.15 mph87%30.12 "HgN/A
6:20 PM46 °FLight rain. Partly sunny.16 mph82%30.12 "HgN/A
5:50 PM46 °FPartly sunny.16 mph82%30.12 "HgN/A
5:20 PM46 °FPartly sunny.17 mph82%30.09 "HgN/A
4:50 PM46 °FBroken clouds.15 mph82%30.12 "HgN/A
4:20 PM46 °FPartly sunny.13 mph82%30.09 "HgN/A
Weather by CustomWeather, © 2014

See weather overviewHow to use our weather pages